Temperature
16 16 16 16 16 16 16 16 16 16 16 17 16 16 16 16 16 16 16 15 15 15 15 15 15 15 14 14 14 14 14 14 14 14 14 14 14 14
16 15 15 16 16 16 16 16 16 16 16 16 16 16 16 16 16 16 16 16 15 15 15 15 15 15 14 14 14 14 14 14 14 14 14 14 14 14
15 15 15 15 15 15 15 16 16 16 16 16 16 16 16 16 16 16 16 16 15 15 15 15 15 15 14 14 14 14 14 14 14 14 14 14 14 14
15 15 15 15 15 15 15 15 15 15 15 15 15 15 15 15 15 15 15 15 15 15 15 15 15 15 15 14 14 14 14 14 14 14 14 14 14 14
15 15 15 15 15 15 15 15 15 15 15 15 15 15 15 15 15 15 15 15 15 15 15 15 15 14 14 14 14 14 14 14 14 14 14 14 14 14
15 15 15 15 15 15 15 15 15 15 14 14 14 15 15 15 15 15 15 15 15 14 14 14 14 14 14 14 14 14 14 14 14 14 14 14 14 13
15 15 15 15 15 15 14 14 14 14 14 14 14 14 14 14 14 14 14 14 14 14 14 14 14 14 14 14 14 13 13 13 13 13 13 13 13 13
15 15 15 14 14 14 14 14 14 14 14 13 13 13 13 13 13 13 13 13 13 13 13 13 13 13 13 13 13 13 13 13 13 13 13 13 13 13
15 15 14 14 14 14 14 14 13 13 13 13 13 13 13 13 13 13 12 12 12 12 12 13 13 12 12 12 12 12 12 12 12 12 12 12 12 12
14 14 14 14 14 13 13 13 13 13 13 12 12 12 12 12 12 12 11 11 11 11 11 11 12 12 12 12 12 11 11 11 11 11 11 11 11 12
14 13 13 13 13 13 13 13 12 12 12 12 11 11 11 11 11 11 11 11 11 11 11 10 11 11 11 11 11 11 11 11 11 10 10 11 11 11
13 13 12 12 12 12 12 12 12 11 11 11 11 11 11 10 10 10 10 10 10 10 10 9 9 9 9 10 10 10 10 10 10 10 10 10 10 10
12 12 12 12 12 11 11 11 11 11 11 10 10 10 10 10 9 9 9 9 9 9 8 8 8 8 8 8 9 9 9 9 9 9 9 9 9 9
11 11 11 11 11 11 10 10 10 10 10 9 9 9 9 9 9 8 8 8 8 8 8 8 7 7 7 7 7 8 8 8 8 8 8 8 8 8
11 10 10 10 10 9 9 9 9 9 9 9 8 8 8 8 7 7 7 7 7 7 7 7 7 7 6 6 6 7 7 7 7 7 7 7 7 8
9 9 9 9 8 8 8 8 8 8 7 7 7 7 6 6 7 7 7 7 7 7 6 6 6 6 6 6 6 6 6 6 6 6 6 7 7 7
8 8 8 8 8 7 7 7 7 6 6 6 6 6 6 6 6 6 6 6 6 5 6 6 5 5 5 5 5 5 5 5 5 5 5 6 6 6
8 8 7 7 7 6 6 6 5 5 5 5 5 5 5 5 5 5 4 4 4 4 4 4 4 5 5 5 4 4 4 4 4 4 4 5 5 5
7 7 6 6 5 5 5 4 4 4 4 4 4 4 4 4 4 4 3 3 3 3 3 3 3 3 3 3 3 3 3 3 3 3 4 4 4 4
6 5 5 4 4 4 4 3 3 3 3 3 3 3 3 3 3 2 2 2 2 2 2 3 2 2 2 2 2 3 3 3 3 3 3 3 3 4
4 4 4 3 3 3 3 3 3 2 2 2 2 2 2 2 2 2 2 1 1 2 2 2 2 2 2 2 2 2 2 2 2 2 2 2 2 3
3 3 3 3 3 2 2 2 2 2 2 2 2 1 1 1 1 1 1 1 1 1 1 1 1 1 1 1 1 1 2 2 2 2 2 2 2 2
3 3 2 2 2 2 2 2 1 1 1 1 1 1 1 1 1 0 0 0 0 0 0 1 1 1 1 1 1 1 1 1 1 2 2 2 2 2
Wind_Speed
4 4 3 3 3 3 3 3 4 2 3 3 2 2 4 7 10 9 10 12 13 13 14 14 14 14 13 14 14 14 14 14 14 14 14 13 13 13
4 4 3 2 2 3 3 3 3 4 3 2 3 2 3 4 7 8 10 11 11 13 13 14 15 15 15 15 15 15 14 15 15 15 15 15 15 14
4 5 4 3 3 3 3 3 3 3 3 2 2 2 2 2 3 4 6 7 8 11 12 14 15 15 15 15 15 15 14 14 15 15 15 15 16 16
6 5 5 4 4 3 3 3 3 4 4 4 2 2 2 2 2 2 4 5 6 8 11 12 13 13 14 14 14 15 15 16 16 16 16 16 16 17
6 6 5 5 5 4 4 4 3 3 3 3 2 1 2 1 1 2 2 3 4 6 8 9 10 12 13 13 13 14 15 15 16 16 17 17 17 17
6 6 6 6 6 6 5 5 3 3 3 2 2 2 2 2 1 2 3 2 3 4 5 6 7 9 10 11 12 13 13 14 15 16 16 17 17 18
5 5 5 5 6 4 3 3 3 3 2 2 2 1 1 1 2 2 3 3 3 2 3 3 4 5 7 9 10 12 13 14 15 16 16 16 17 17
4 3 2 2 3 4 4 3 4 3 3 2 1 2 2 2 2 2 2 2 3 1 2 4 3 4 6 6 8 10 12 13 13 13 14 15 16 16
3 2 1 1 2 2 2 2 2 2 3 3 3 3 3 3 2 2 2 3 4 3 2 4 3 4 5 6 8 10 10 11 11 11 11 12 13 14
2 2 2 1 2 2 3 2 2 1 0 1 2 2 2 2 2 2 3 4 4 2 2 3 3 4 5 6 7 8 8 9 10 11 11 12 12 13
3 2 2 2 2 3 4 3 2 2 4 4 2 2 3 3 1 0 1 2 3 3 1 2 3 4 5 5 6 6 8 9 11 11 11 12 12 12
4 4 6 5 6 5 4 3 2 2 3 4 5 6 5 6 5 2 1 2 2 3 1 2 3 3 4 3 4 6 7 8 10 11 11 11 11 8
5 5 5 9 9 8 7 5 3 2 3 4 4 5 5 5 5 5 3 1 2 2 2 2 2 2 3 4 5 5 6 6 7 8 9 10 10 7
6 6 7 12 13 12 9 9 8 6 5 5 5 5 5 5 5 6 5 3 2 3 4 3 2 3 4 5 5 5 6 7 6 6 7 9 9 10
9 12 13 13 12 11 14 13 9 7 6 6 6 5 5 5 5 5 6 6 4 4 5 4 3 4 4 5 6 6 6 6 5 6 6 7 7 7
10 12 14 15 12 11 10 10 8 7 6 6 5 5 5 6 6 6 5 6 5 5 6 7 6 5 5 6 6 7 6 5 6 8 8 8 8 8
9 9 9 8 9 9 9 9 8 8 8 7 6 6 6 6 6 6 5 5 4 5 7 7 8 7 6 6 6 6 7 7 7 8 8 9 8 8
10 9 8 8 8 8 8 8 8 7 7 6 6 6 6 6 6 6 6 5 6 6 6 7 7 7 6 4 4 6 7 8 8 8 7 8 10 8
11 9 8 7 7 7 6 6 6 6 5 6 6 6 6 6 6 6 7 6 6 7 7 6 6 6 8 9 6 4 7 9 9 9 8 8 10 10
8 7 7 6 6 5 5 5 5 5 6 6 6 6 6 6 6 7 7 7 7 7 7 7 6 6 7 8 7 8 9 8 8 9 10 9 9 11
7 6 5 5 5 4 4 4 5 5 5 5 6 6 6 6 6 6 7 8 8 7 8 8 8 10 8 6 7 8 8 9 9 8 9 9 10 9
5 5 5 4 4 4 4 4 5 5 6 6 6 6 6 6 7 7 7 7 7 8 9 9 9 8 6 6 9 9 9 10 10 11 10 9 7 7
4 4 4 4 4 4 4 5 5 5 5 6 6 6 6 6 6 7 7 7 7 8 9 9 8 7 7 7 8 9 11 11 9 9 9 10 11 13
Wind_Direction
182 182 188 196 191 190 179 170 164 195 252 270 274 278 251 243 244 237 238 244 244 245 246 246 246 248 252 255 257 258 257 256 255 255 256 257 257 256
184 182 189 193 192 186 184 185 180 179 220 252 253 275 280 267 252 238 242 248 249 248 249 250 251 253 255 256 256 256 256 256 256 257 258 258 257 257
190 191 198 186 188 191 182 179 183 177 210 259 261 275 271 278 284 257 252 249 252 251 250 252 254 256 257 257 256 255 256 256 257 258 259 260 259 258
198 193 202 191 193 194 190 193 196 194 200 234 261 271 265 279 279 276 271 262 258 261 256 255 256 257 257 257 257 258 258 258 257 258 259 259 259 257
195 196 203 193 202 202 199 202 205 200 200 216 251 265 282 297 303 294 290 283 276 269 266 264 264 264 263 261 260 259 259 260 260 259 258 258 258 257
201 202 205 203 209 204 204 207 200 193 193 212 243 266 278 296 297 293 299 294 295 295 283 278 275 274 269 267 264 261 261 261 262 261 261 260 260 259
196 199 203 201 201 193 194 200 191 195 200 216 241 260 283 296 282 280 279 294 291 287 298 295 287 282 280 274 270 266 266 266 266 265 263 262 261 260
189 191 192 191 188 173 169 164 163 180 199 206 227 245 273 275 279 278 284 297 293 295 289 292 281 278 280 273 273 274 275 274 272 269 268 266 263 261
176 173 170 154 169 162 153 147 155 170 184 193 217 241 258 264 263 274 260 259 268 292 283 286 286 287 292 289 284 283 285 286 282 278 275 273 271 267
144 149 146 120 119 139 129 106 84 56 118 185 219 252 265 271 251 269 274 275 272 278 256 272 289 287 297 294 294 296 297 296 295 291 286 282 279 276
94 92 122 118 80 118 120 111 79 38 50 55 40 10 5 359 339 305 302 296 293 292 282 274 291 296 292 287 294 306 310 309 303 297 294 293 289 285
84 70 69 75 65 79 100 102 81 22 29 35 36 29 28 26 28 15 289 277 285 293 330 304 296 307 298 290 303 312 314 311 307 303 303 303 300 292
94 77 66 69 68 68 75 77 77 68 62 59 49 37 31 27 22 16 4 310 284 283 330 319 302 307 289 299 305 306 311 314 314 309 306 305 303 293
96 87 78 73 68 63 65 64 62 61 62 57 48 35 25 14 4 4 6 6 336 303 325 328 303 305 300 295 296 303 310 314 313 310 316 314 306 296
93 89 80 73 70 65 59 58 57 57 57 54 44 29 15 6 6 4 6 9 10 1 355 346 319 302 287 283 290 296 306 309 311 311 311 307 304 304
88 81 75 69 67 60 54 51 49 50 53 48 33 19 11 13 16 10 2 356 353 347 346 342 331 310 294 287 285 291 296 299 308 312 308 301 296 291
90 76 67 62 58 54 51 48 44 42 42 36 32 24 17 14 9 3 0 359 352 338 336 339 336 321 290 284 290 293 299 303 307 311 308 304 303 303
83 76 70 66 63 58 54 48 42 38 33 30 27 21 13 7 2 0 359 354 345 338 335 334 336 335 330 312 269 297 310 313 315 312 307 302 302 306
79 77 73 68 64 60 55 50 40 29 26 28 24 16 9 4 359 356 353 348 341 334 330 332 335 335 327 322 317 302 311 314 314 312 309 302 299 302
74 77 74 68 64 58 51 44 34 26 25 22 18 11 4 357 352 349 346 341 333 329 328 332 334 330 313 306 303 305 305 303 309 310 311 307 299 293
74 73 70 67 61 53 44 36 29 21 15 10 7 0 355 350 345 341 336 331 329 328 328 326 320 312 301 291 295 305 312 306 296 296 307 309 310 309
78 74 66 60 54 46 37 28 20 13 7 3 356 351 346 341 336 331 330 328 325 322 318 316 318 320 318 314 313 314 315 317 316 306 294 286 301 309
80 74 63 53 47 40 31 22 13 4 358 352 347 343 339 335 329 324 323 322 321 322 324 324 326 326 323 318 318 318 320 321 322 322 320 317 301 289
Height
1566 1568 1569 1570 1572 1572 1573 1574 1575 1575 1575 1575 1575 1576 1576 1576 1576 1576 1577 1577 1577 1577 1577 1577 1577 1577 1577 1577 1576 1577 1576 1576 1576 1577 1577 1577 1577 1577
1564 1565 1566 1568 1569 1570 1571 1572 1572 1573 1572 1573 1573 1573 1573 1574 1574 1574 1574 1574 1574 1574 1574 1574 1574 1573 1573 1573 1573 1573 1573 1573 1573 1573 1573 1573 1573 1572
1560 1562 1563 1565 1566 1567 1568 1569 1569 1570 1570 1570 1570 1570 1571 1571 1571 1571 1571 1571 1571 1571 1570 1570 1570 1570 1569 1569 1569 1569 1568 1568 1568 1568 1568 1568 1567 1567
1558 1559 1561 1562 1563 1564 1565 1565 1566 1566 1566 1566 1566 1567 1567 1567 1567 1567 1567 1567 1567 1567 1566 1566 1566 1565 1565 1564 1564 1564 1563 1563 1563 1563 1562 1562 1562 1562
1555 1556 1558 1559 1560 1561 1561 1562 1562 1563 1563 1562 1562 1563 1563 1563 1563 1563 1563 1563 1562 1562 1562 1561 1561 1560 1560 1559 1559 1558 1558 1558 1557 1557 1556 1556 1556 1556
1552 1553 1554 1555 1556 1557 1558 1558 1559 1559 1559 1559 1559 1559 1559 1558 1558 1558 1558 1558 1557 1557 1556 1556 1555 1555 1554 1554 1553 1553 1552 1551 1551 1550 1550 1550 1549 1549
1548 1549 1551 1552 1553 1554 1554 1555 1555 1555 1555 1555 1555 1554 1554 1554 1554 1553 1552 1552 1551 1551 1551 1550 1550 1549 1548 1548 1547 1546 1546 1545 1545 1544 1543 1543 1542 1542
1545 1546 1548 1548 1549 1550 1550 1551 1551 1551 1551 1551 1550 1550 1550 1550 1549 1548 1548 1547 1546 1546 1545 1545 1544 1543 1542 1542 1541 1540 1539 1539 1538 1537 1536 1536 1536 1535
1542 1543 1544 1545 1546 1546 1547 1547 1547 1547 1547 1547 1547 1546 1546 1545 1545 1544 1543 1542 1541 1540 1539 1538 1538 1537 1537 1536 1535 1534 1533 1532 1531 1530 1529 1528 1528 1527
1539 1540 1541 1542 1542 1543 1543 1543 1543 1543 1543 1543 1543 1542 1542 1541 1540 1540 1538 1537 1536 1535 1535 1533 1532 1531 1531 1530 1529 1528 1527 1525 1524 1523 1522 1521 1520 1519
1536 1537 1538 1538 1539 1540 1540 1540 1540 1540 1540 1539 1539 1539 1538 1537 1536 1536 1534 1533 1531 1531 1530 1528 1526 1525 1524 1523 1523 1522 1520 1519 1517 1516 1515 1513 1512 1511
1533 1535 1536 1536 1537 1537 1537 1537 1537 1537 1537 1536 1536 1535 1534 1533 1532 1531 1530 1529 1527 1526 1524 1523 1522 1520 1518 1517 1516 1515 1513 1512 1510 1509 1508 1506 1505 1503
1532 1533 1533 1534 1535 1535 1535 1535 1534 1534 1534 1533 1532 1532 1531 1530 1529 1528 1526 1525 1523 1522 1521 1519 1517 1515 1514 1511 1510 1509 1507 1505 1503 1501 1500 1499 1498 1496
1530 1531 1532 1532 1533 1533 1533 1532 1532 1532 1531 1530 1530 1529 1528 1527 1526 1525 1523 1522 1520 1519 1517 1515 1513 1511 1509 1506 1504 1502 1501 1499 1497 1495 1494 1492 1491 1490
1528 1529 1530 1531 1531 1531 1531 1531 1530 1530 1529 1528 1527 1527 1526 1524 1523 1522 1521 1519 1517 1515 1514 1511 1509 1507 1505 1502 1500 1497 1495 1493 1492 1490 1487 1486 1484 1482
1528 1528 1529 1530 1531 1531 1530 1530 1529 1529 1528 1527 1526 1525 1524 1523 1521 1519 1517 1515 1514 1512 1510 1508 1505 1503 1501 1498 1496 1493 1491 1488 1486 1484 1481 1479 1477 1475
1529 1529 1530 1531 1531 1530 1530 1530 1529 1529 1528 1526 1525 1524 1522 1521 1518 1516 1514 1512 1510 1508 1506 1504 1502 1499 1496 1494 1491 1488 1486 1483 1481 1478 1475 1472 1470 1468
1531 1530 1531 1531 1531 1531 1530 1530 1529 1528 1527 1525 1524 1522 1520 1518 1516 1514 1512 1510 1507 1505 1502 1499 1497 1494 1492 1489 1488 1484 1481 1478 1475 1473 1469 1466 1463 1462
1532 1532 1532 1532 1532 1532 1531 1530 1529 1528 1526 1525 1523 1521 1519 1517 1514 1512 1510 1507 1505 1502 1500 1497 1494 1490 1488 1485 1483 1481 1477 1473 1470 1467 1464 1461 1457 1455
1533 1533 1533 1533 1533 1533 1532 1531 1529 1528 1526 1524 1522 1520 1517 1515 1512 1510 1507 1505 1502 1499 1497 1494 1492 1488 1486 1483 1479 1476 1474 1470 1466 1463 1459 1455 1452 1449
1535 1535 1535 1534 1534 1533 1532 1530 1529 1527 1525 1523 1520 1518 1515 1513 1510 1507 1505 1502 1499 1497 1494 1491 1489 1486 1483 1479 1476 1472 1470 1467 1463 1459 1455 1451 1447 1443
1536 1536 1536 1535 1534 1533 1532 1530 1528 1526 1524 1521 1519 1516 1513 1511 1508 1505 1502 1500 1497 1494 1491 1488 1486 1483 1480 1477 1473 1469 1465 1462 1459 1456 1452 1449 1444 1440
1537 1537 1536 1535 1534 1533 1531 1529 1527 1525 1522 1520 1517 1514 1511 1509 1506 1503 1501 1498 1495 1492 1489 1486 1483 1480 1477 1474 1470 1466 1462 1459 1455 1451 1448 1445 1442 1438